• Join FlightAware (Why Join?)
  • Login
  • US Flag 
03:52PM EST


 

Airport Tracker/Info


-or-


 

Live Flight TrackerFlight Track Log ✈ XOJ552 ✈ 25-Oct-2013 ✈ KHTO - KHPN

Flight Track Log - Related Links

Times and Time Zones

All times are in EDT time to prevent confusion due to time zone crossing. See the XOJ552 flight status page for this flight to view local times or setup timezone preferences in your user account.

Time Position Orientation Groundspeed Altitude Reporting Facility
EDT Latitude Longitude Course Direction KTS MPH feet Rate Location/Type
04:27PM 40.9833 -72.4167 304° West 227 261 6,000  Level New York TRACON
04:27PM 41.0000 -72.5000 285° West 239 275 6,100  Climbing New York TRACON
04:28PM 41.0167 -72.5833 285° West 237 273 6,000 -60 Descending New York TRACON
04:29PM 41.0333 -72.6667 285° West 233 268 6,000  Level New York TRACON
04:30PM 41.0667 -72.7500 298° West 236 272 6,100  Climbing New York TRACON
04:31PM 40.9956 -72.7145 270° West  Level Estimated
04:31PM 41.0833 -72.8333 285° West 233 268 6,100  Level New York TRACON
04:32PM 41.1000 -72.9167 285° West 240 276 6,000 -60 Descending New York TRACON
04:33PM 41.1333 -72.9833 304° West 239 275 6,000 -540 Level New York TRACON
04:34PM 41.1500 -73.0667 285° West 233 268 5,000 -960 Descending New York TRACON
04:36PM 41.1667 -73.1667 283° West 230 265 4,000 -480 Descending New York TRACON
04:37PM 41.1667 -73.2333 270° West 202 232 4,000  Level New York TRACON
04:38PM 41.1833 -73.3167 285° West 202 232 4,000  Level New York TRACON
04:39PM 41.1833 -73.4000 270° West 237 273 4,100 -60 Climbing New York TRACON
04:39PM 41.1833 -73.4667 270° West 242 278 3,900 -540 Descending New York TRACON
04:40PM 41.1167 -73.4833 191° South 278 320 3,100 -480 Descending New York TRACON
04:41PM 41.0500 -73.4500 159° South 272 313 3,000  Descending New York TRACON
04:42PM 41.0000 -73.4833 207° Southwest 204 235 3,100  Climbing New York TRACON
04:43PM 40.9500 -73.5333 217° Southwest 212 244 3,000 -60 Descending New York TRACON
04:44PM 40.9333 -73.5833 246° West 163 188 3,000 -360 Level New York TRACON
04:45PM 40.9667 -73.6167 323° Northwest 160 184 2,300 -540 Descending New York TRACON
04:46PM 41.0000 -73.6500 323° Northwest 152 175 2,000 -480 Descending New York TRACON
04:47PM 41.0167 -73.6667 323° Northwest 115 132 1,400 -660 Descending New York TRACON
04:48PM 41.0500 -73.7000 323° Northwest 109 125 700 -720 Descending New York TRACON
04:50PM 41.0667 -73.7000 327° Northwest  Level FlightAware Approximate
04:57PM 41.0669 -73.7076 327° Northwest  Level Estimated